Rbgn^[z[y[W
メイン
   新天体発見情報
     Comet C/2024 A1 (ATLAS)
投稿するにはまず登録を

スレッド表示 | 新しいものから 前のトピック | 次のトピック | 下へ
投稿者 スレッド
佐藤裕久
投稿日時: 2024-1-26 13:39
モデレータ
登録日: 2005-6-12
居住地: 日本
投稿: 2626
オンライン
Comet C/2024 A1 (ATLAS)

チリ Rio Hurtadoにある小惑星地球衝突最終警報システム Asteroid Terrestrial-impact Last 
Alert System (ATLAS)調査プログラムのコースに0.5-m f/2 Schmidt反射望遠鏡で得たCCD画像か
ら彗星を発見された。
A. Fitzsimmonsの報告によると、1月3.2日UT、30秒4枚の画像でこの天体は、4".3のシーイングで、
6".3(半値全幅:FWHM)で、"わずかに柔らかい"。
小惑星センターのPCCP webpageに公表後、佐藤英貴氏(東京都文京区,1月4.30日UT、60-秒露出8枚
のスタック, 0.51-m f/6.8 アストログラフ, Rio Hurtado, チリ, 遠隔操作:強く集光した8" の
コマが見え、p.a. 300°に向かって5"の尾の気配がある。4".3の円形範囲で測定した光度は18.5等
であった)らCCD観測者によって彗星状と観測された。

彗星機能の報告は次のとおり、

OC   Date        Reporter           Coma    Tail    PA          Exposures
X07  2024-01-04  H. Sato            8"        5"    300           8x60s
L09  2024-01-05  A. Hale            5"
M21  2024-01-10  A. Aletti          6"

発見位置は次のとおり、

     2024 UT             R.A. (2000) Decl.       Mag.
     Jan.  3.20752    7 05 23.35   -65 42 33.4   18.8
           3.21123    7 05 22.85   -65 42 33.3   18.7
           3.24216    7 05 20.04   -65 42 26.2   18.8
           3.24854    7 05 19.31   -65 42 25.2   18.8

MPCの楕円軌道要素、位置推算表は次のとおり、

Orbital elements:
    C/2024 A1 (ATLAS)                                                           
Epoch 2023 Sept. 13.0 TT = JDT 2460200.5                                        
T 2025 June 15.71350 TT                                 Rudenko                 
q   3.8799334            (2000.0)            P               Q                  
z  +0.0023999      Peri.  353.38033     -0.38391032     +0.02740760             
 +/-0.0000168      Node   112.22170     +0.88630549     -0.26942111             
e   0.9906884      Incl.   94.42858     +0.25898929     +0.96263237             
From 94 observations 2024 Jan. 3-19, mean residual 0".4.                        
                                                                                
Ephemeris:
Date    TT    R. A. (2000) Decl.     Delta      r    Elong.  Phase   m1
2023 12 22    07 24 15.9 -66 08 44   5.8771  5.9407    88.9     9.5  18.6
...
2024 01 06    07 01 00.5 -65 31 24   5.7383  5.8533    91.9     9.7  18.5
...
2024 01 14    06 48 43.5 -64 48 19   5.6690  5.8069    93.2     9.7  18.4
...
2024 01 20    06 40 02.4 -64 05 15   5.6200  5.7723    94.0     9.8  18.4
2024 01 21    06 38 39.2 -63 57 12   5.6121  5.7665    94.1     9.8  18.4
2024 01 22    06 37 17.3 -63 48 54   5.6043  5.7608    94.2     9.8  18.3
...
2024 01 28    06 29 32.8 -62 54 08   5.5593  5.7263    94.8     9.9  18.3
...
2024 02 05    06 20 35.7 -61 28 37   5.5047  5.6805    95.3    10.0  18.2
...
2024 02 20    06 08 32.0 -58 15 49   5.4208  5.5951    95.0    10.1  18.1

(MPEC 2024-B78、CBET 5333

スレッド表示 | 新しいものから 前のトピック | 次のトピック | トップ

投稿するにはまず登録を
 
© 1999 Tsutomu Seki.